Powrót do katalogu

COSMOS 1818 COOLANT

AktywnyLEO
NORAD 34174·DEBRIS·🇷🇺 Russia

Wystrzelony Feb 1, 1987 z Baikonur Cosmodrome

Loading…

Następne Przeloty (najbliższe 24 godziny)

TLE

NieaktualneSource: Space-Track

Epoka: Sep 7, 2026, 09:11 UTC

1 34174U 87011E   26250.38283520  .00000571  00000-0  20374-3 0  9994
2 34174  65.0005 289.8811 0021989 279.7254  93.5561 14.42148848355689

Śledź COSMOS 1818 COOLANT w czasie rzeczywistym z AllMySat

Download on the App Store